Simultaneous Nadir Overpasses (SNOs) Predictions

Prediction of SNOs near equator between AQUA and NPP Satellite Orbit:

Table of predicted SNOs near equator for the next 14.0 days since TLE Epoch: 11/29/2013
Index Date (AQUA) Time (AQUA) AQUA Lat,Lon Date (NPP) Time (NPP) NPP Lat,Lon Distance(km) Time Diff (sec)
1 12/01/2013 23:27:21 29.99,-152.69 12/01/2013 23:17:21 30.07,-152.76 10.69 600
2 12/02/2013 00:09:18 -3.15, 21.12 12/02/2013 00:00:23 -3.15, 21.10 2.85 535
3 12/02/2013 00:57:20 -2.24,-170.11 12/02/2013 00:49:40 -2.27,-170.39 31.22 460
4 12/02/2013 01:45:27 6.77, -1.49 12/02/2013 01:39:02 6.90, -2.02 60.44 385
5 12/02/2013 02:33:43 -11.30, 167.12 12/02/2013 02:28:33 -11.49, 166.33 88.46 310
6 12/04/2013 15:40:35 18.23, -33.95 12/04/2013 15:30:59 18.23, -33.95 0.19 576
7 12/04/2013 16:25:04 -0.53, 137.56 12/04/2013 16:16:38 -0.50, 137.46 12.25 506
8 12/04/2013 17:13:20 -4.00, -53.85 12/04/2013 17:06:09 -4.10, -54.22 41.63 431
9 12/04/2013 18:01:27 8.54, 114.78 12/04/2013 17:55:32 8.68, 114.15 70.69 355
10 12/04/2013 18:49:42 -13.12, -76.60 12/04/2013 18:45:02 -13.32, -77.49 98.05 280
11 12/07/2013 07:54:20 8.36, 84.11 12/07/2013 07:45:11 8.36, 84.11 0.15 549
12 12/07/2013 08:41:02 1.31,-106.16 12/07/2013 08:33:07 1.33,-106.37 23.27 475
13 12/07/2013 09:29:17 -5.90, 62.44 12/07/2013 09:22:37 -5.98, 61.97 52.31 400
14 12/07/2013 10:17:24 10.44,-128.93 12/07/2013 10:12:00 10.56,-129.66 80.99 324
15 12/09/2013 23:25:25 -23.39, 28.99 12/09/2013 23:15:37 -23.38, 29.00 1.37 588
16 12/10/2013 00:08:51 1.38,-158.50 12/10/2013 00:00:11 1.38,-158.54 4.50 520
17 12/10/2013 00:56:58 3.16, 10.12 12/10/2013 00:49:34 3.20, 9.81 34.32 444
18 12/10/2013 01:45:13 -7.75, 178.72 12/10/2013 01:39:04 -7.85, 178.16 63.14 369
19 12/10/2013 02:33:20 12.28, -12.63 12/10/2013 02:28:27 12.43, -13.46 91.27 293
20 12/12/2013 15:39:29 -14.79, 146.87 12/12/2013 15:30:10 -14.79, 146.86 0.43 559
21 12/12/2013 16:24:46 -0.54, -42.20 12/12/2013 16:16:38 -0.55, -42.35 16.10 488
22 12/12/2013 17:12:53 5.08, 126.42 12/12/2013 17:06:00 5.19, 126.02 45.52 413
23 12/12/2013 18:01:08 -9.66, -64.97 12/12/2013 17:55:31 -9.77, -65.64 74.10 337
